Zurück zum Katalog

CICERO-2

AktivWissenschaftSSO
NORAD 42848·PAYLOAD·🇺🇸 United States
Dieser Satellitenname wurde noch nicht durch offizielle Quellen bestätigt.

Gestartet Jul 14, 2017 von Baikonur Cosmodrome

Loading…

Nächste Überflüge (nächste 24 Stunden)

TLE

AktuellSource: Space-Track

Epoche: Sep 13, 2026, 09:43 UTC

1 42848U 17042Z   26256.40543652  .00003172  00000-0  20981-3 0  9996
2 42848  97.4040  56.1874 0006682 112.1361 248.0578 15.08036758500530

Verfolge CICERO-2 in Echtzeit mit AllMySat

Download on the App Store